Tracking 22124 objects as of 24-Jan-2021
HD Live streaming from Space Station
objects crossing your sky now

OPS 6679 (VELA 8)

Track OPS 6679 (VELA 8) now!
OPS 6679 (VELA 8) is classified as:


NORAD ID: 2766
Int'l Code: 1967-040B
Perigee: 56,589.3 km
Apogee: 167,334.4 km
Inclination: 25.6 °
Period: 6,751.8 minutes
Semi major axis: 118332 km
RCS: Unknown
Launch date: April 28, 1967
Source: United States (US)
Launch site: AIR FORCE EASTERN TEST RANGE (AFETR)
aabbcc
Your satellite tracking list
Your tracking list is empty




NASA's NSSDC Master Catalog

Two Line Element Set (TLE):
1 02766U 67040B   21022.74697012 -.00000829  00000-0  00000-0 0  9991
2 02766  25.6398  27.7088 4679387  37.0718   1.2640  0.21327739  1309
Source of the keplerian elements: AFSPC